CAPE
0 0 0 0 0 6 0 1 1 0 0 0 0 0 0 0 2 1 0 0 0 0 0 0 0 0 0 0 0 0 0 0 0 0 0 0 0 0 0 0 0 0 0 0
0 0 0 4 5 8 5 6 4 2 3 0 0 0 4 8 5 2 1 0 0 0 0 0 0 0 0 0 0 0 0 0 0 0 0 0 0 0 0 0 0 0 0 0
0 0 3 4 4 7 0 0 0 8 0 0 0 0 2 0 2 1 0 0 0 0 0 0 0 0 0 0 0 0 0 0 0 0 0 0 0 0 0 0 0 0 0 0
19 1 4 0 1 7 10 0 0 0 0 0 0 0 0 0 0 0 0 0 0 0 0 0 0 0 0 0 0 0 0 0 0 0 0 0 0 0 0 0 0 0 0 0
37 14 0 0 0 1 6 0 0 0 0 0 0 0 0 0 0 0 0 0 0 0 0 0 0 0 0 0 0 0 0 0 0 0 0 0 0 0 0 0 0 0 0 0
4 3 0 0 0 0 0 0 0 0 0 0 0 0 0 0 0 0 0 0 0 0 0 0 0 0 0 0 0 0 0 0 0 0 0 0 0 0 0 0 0 0 0 0
34 17 0 0 0 0 0 0 0 0 0 0 0 0 0 0 0 0 0 0 0 0 0 0 0 0 0 0 0 0 0 0 0 0 0 0 0 0 0 0 0 0 0 0
4 1 0 0 0 0 0 0 0 0 0 0 0 0 0 0 0 0 0 0 0 0 0 0 0 0 0 0 0 0 0 0 0 0 0 0 0 0 0 0 0 0 0 0
0 0 0 0 0 0 0 0 0 0 0 0 0 0 0 0 0 0 0 0 0 0 0 0 0 0 0 0 0 0 0 0 0 0 0 0 0 0 0 0 0 0 0 0
0 0 0 0 0 0 0 0 0 0 0 0 0 0 0 0 0 0 0 0 0 0 0 0 0 0 0 0 0 0 0 0 0 0 0 0 0 0 0 0 0 0 0 0
0 0 0 0 0 0 0 0 0 0 0 0 0 0 0 0 0 0 0 0 0 0 0 0 0 0 0 0 0 0 0 0 0 0 0 0 0 0 0 0 0 0 0 0
0 0 0 0 0 0 0 0 0 0 0 0 0 0 0 0 0 0 0 0 0 0 0 0 0 0 0 0 0 0 0 0 0 0 0 0 0 0 0 0 0 0 0 0
0 0 0 0 0 0 0 0 0 0 0 0 0 0 0 0 0 0 0 0 0 0 0 0 0 0 0 0 0 0 0 0 0 0 0 0 0 0 0 0 0 0 0 0
0 0 0 0 0 0 0 0 0 0 0 0 0 0 0 0 0 0 0 0 0 0 0 0 0 0 0 0 0 0 0 0 0 0 0 0 0 0 0 0 0 0 0 0
0 0 0 0 0 0 0 0 0 0 0 0 0 0 0 0 0 0 0 0 0 0 0 0 0 0 0 0 0 0 0 0 0 0 0 0 0 0 0 0 0 0 0 0
0 0 0 0 0 0 0 0 0 0 0 0 0 0 0 0 0 0 0 0 0 0 0 0 0 0 0 0 0 0 0 0 0 0 0 0 0 0 0 0 0 0 0 0
0 0 0 0 0 0 0 0 0 0 0 0 0 0 0 0 0 0 0 0 0 0 0 0 0 0 0 0 0 0 0 0 0 0 0 0 0 0 0 0 0 0 0 0
0 0 0 0 0 0 0 0 0 0 0 0 0 0 0 0 0 0 0 0 0 0 0 0 0 0 0 0 0 0 0 0 0 0 0 0 0 0 0 0 0 0 0 0
0 0 0 0 0 0 0 0 0 0 0 0 0 0 0 0 0 0 0 0 0 0 0 0 0 0 0 0 0 0 0 0 0 0 0 0 0 0 0 0 0 0 0 0
0 0 0 0 0 0 0 0 0 0 0 0 0 0 0 0 0 0 0 0 0 0 0 0 0 0 0 0 0 0 0 0 0 0 0 0 0 0 0 0 0 0 0 0
0 0 0 0 0 0 0 0 0 0 0 0 0 0 0 0 0 0 0 0 0 0 0 0 0 0 0 0 0 0 0 0 0 0 0 0 0 0 0 0 0 0 0 0
0 0 0 0 0 0 0 0 0 0 0 0 0 0 0 0 0 0 0 0 0 0 0 0 0 0 0 0 0 0 0 0 0 0 0 0 0 0 0 0 0 0 0 1
0 0 0 0 0 0 0 0 0 0 0 0 0 0 0 0 0 0 0 0 0 0 0 0 0 0 0 0 0 0 0 0 0 0 0 0 0 0 0 0 0 0 0 0
0 0 0 0 0 0 0 0 0 0 0 0 0 0 0 0 0 0 0 0 0 0 0 0 0 0 0 0 0 0 0 0 0 0 0 0 0 0 0 0 0 0 0 0
0 0 0 0 0 0 0 0 0 0 0 0 0 0 0 0 0 0 0 0 0 0 0 0 0 0 0 0 0 0 0 0 0 0 0 0 0 0 0 0 0 0 0 0
0 0 0 0 0 0 0 0 0 0 0 0 0 0 0 0 0 0 0 0 0 0 0 0 0 0 0 0 0 0 0 0 0 0 0 0 0 0 0 0 0 0 0 0
0 0 0 0 0 0 0 0 0 0 0 0 0 0 0 0 0 0 0 0 0 0 0 0 0 0 0 0 0 0 0 0 0 0 0 0 0 0 0 0 0 0 0 0
CIN
-0 -0 -0 -0 -0 -0 -0 -0 -0 -0 -0 -0 -0 -0 -0 -0 -0 -0 -0 -0 -0 -0 -0 -0 -0 -0 -0 -0 -0 -0 -0 -0 -0 -0 -0 -0 -0 -0 -0 -0 -0 -0 -0 -0
-0 -0 -0 -0 -0 -0 -0 -0 -0 -0 -0 -0 -0 -0 -0 -0 -0 -0 -0 -0 -0 -0 -0 -0 -0 -0 -0 -0 -0 -0 -0 -0 -0 -0 -0 -0 -0 -0 -0 -0 -0 -0 -0 -0
-0 -0 -0 -0 -0 -0 -0 -0 -0 -0 -0 -0 -0 -0 -0 -0 -0 -0 -0 -0 -0 -0 -0 -0 -0 -0 -0 -0 -0 -0 -0 -0 -0 -0 -0 -0 -0 -0 -0 -0 -0 -0 -0 -0
-0 -0 -0 -0 -14 -0 -0 -0 -0 -0 -0 -0 -0 -0 -0 -0 -0 -0 -0 -0 -0 -0 -0 -0 -0 -0 -0 -0 -0 -0 -0 -0 -0 -0 -0 -0 -0 -0 -0 -0 -0 -0 -0 -0
-0 -0 -0 -0 -0 -0 -0 -0 -0 -0 -0 -0 -0 -0 -0 -0 -0 -0 -0 -0 -0 -0 -0 -0 -0 -0 -0 -0 -0 -0 -0 -0 -0 -0 -0 -0 -0 -0 -0 -0 -0 -0 -0 -0
-1 -0 -0 -0 -0 -0 -0 -0 -0 -0 -0 -0 -0 -0 -0 -0 -0 -0 -0 -0 -0 -0 -0 -0 -0 -0 -0 -0 -0 -0 -0 -0 -0 -0 -0 -0 -0 -0 -0 -0 -0 -0 -0 -0
-0 -1 -0 -0 -0 -0 -0 -0 -0 -0 -0 -0 -0 -0 -0 -0 -0 -0 -0 -0 -0 -0 -0 -0 -0 -0 -0 -0 -0 -0 -0 -0 -0 -0 -0 -0 -0 -0 -0 -0 -0 -0 -0 -0
-0 -1 -0 -0 -0 -0 -0 -0 -0 -0 -0 -0 -0 -0 -0 -0 -0 -0 -0 -0 -0 -0 -0 -0 -0 -0 -0 -0 -0 -0 -0 -0 -0 -0 -0 -0 -0 -0 -0 -0 -0 -0 -0 -0
-0 -0 -0 -0 -0 -0 -0 -0 -0 -0 -0 -0 -0 -0 -0 -0 -0 -0 -0 -0 -0 -0 -0 -0 -0 -0 -0 -0 -0 -0 -0 -0 -0 -0 -0 -0 -0 -0 -0 -0 -0 -0 -0 -0
-0 -0 -0 -0 -0 -0 -0 -0 -0 -0 -0 -0 -0 -0 -0 -0 -0 -0 -0 -0 -0 -0 -0 -0 -0 -0 -0 -0 -0 -0 -0 -0 -0 -0 -0 -0 -0 -0 -0 -0 -0 -0 -0 -0
-0 -0 -0 -0 -0 -0 -0 -0 -0 -0 -0 -0 -0 -0 -0 -0 -0 -0 -0 -0 -0 -0 -0 -0 -0 -0 -0 -0 -0 -0 -0 -0 -0 -0 -0 -0 -0 -0 -0 -0 -0 -0 -0 -0
-0 -0 -0 -0 -0 -0 -0 -0 -0 -0 -0 -0 -0 -0 -0 -0 -0 -0 -0 -0 -0 -0 -0 -0 -0 -0 -0 -0 -0 -0 -0 -0 -0 -0 -0 -0 -0 -0 -0 -0 -0 -0 -0 -0
-0 -0 -0 -0 -0 -0 -0 -0 -0 -0 -0 -0 -0 -0 -0 -0 -0 -0 -0 -0 -0 -0 -0 -0 -0 -0 -0 -0 -0 -0 -0 -0 -0 -0 -0 -0 -0 -0 -0 -0 -0 -0 -0 -0
-0 -0 -0 -0 -0 -0 -0 -0 -0 -0 -0 -0 -0 -0 -0 -0 -0 -0 -0 -0 -0 -0 -0 -0 -0 -0 -0 -0 -0 -0 -0 -0 -0 -0 -0 -0 -0 -0 -0 -0 -0 -0 -0 -0
-0 -0 -0 -0 -0 -0 -0 -0 -0 -0 -0 -0 -0 -0 -0 -0 -0 -0 -0 -0 -0 -0 -0 -0 -0 -0 -0 -0 -0 -0 -0 -0 -0 -0 -0 -0 -0 -0 -0 -0 -0 -0 -0 -0
-0 -0 -0 -0 -0 -0 -0 -0 -0 -0 -0 -0 -0 -0 -0 -0 -0 -0 -0 -0 -0 -0 -0 -0 -0 -0 -0 -0 -0 -0 -0 -0 -0 -0 -0 -0 -0 -0 -0 -0 -0 -0 -0 -0
-0 -0 -0 -0 -0 -0 -0 -0 -0 -0 -0 -0 -0 -0 -0 -0 -0 -0 -0 -0 -0 -0 -0 -0 -0 -0 -0 -0 -0 -0 -0 -0 -0 -0 -0 -0 -0 -0 -0 -0 -0 -0 -0 -0
-0 -0 -0 -0 -0 -0 -0 -0 -0 -0 -0 -0 -0 -0 -0 -0 -0 -0 -0 -0 -0 -0 -0 -0 -0 -0 -0 -0 -0 -0 -0 -0 -0 -0 -0 -0 -0 -0 -0 -0 -0 -0 -0 -0
-0 -0 -0 -0 -0 -0 -0 -0 -0 -0 -0 -0 -0 -0 -0 -0 -0 -0 -0 -0 -0 -0 -0 -0 -0 -0 -0 -0 -0 -0 -0 -0 -0 -0 -0 -0 -0 -0 -0 -0 -0 -0 -0 -0
-0 -0 -0 -0 -0 -0 -0 -0 -0 -0 -0 -0 -0 -0 -0 -0 -0 -0 -0 -0 -0 -0 -0 -0 -0 -0 -0 -0 -0 -0 -0 -0 -0 -0 -0 -0 -0 -0 -0 -0 -0 -0 -0 -0
-0 -0 -0 -0 -0 -0 -0 -0 -0 -0 -0 -0 -0 -0 -0 -0 -0 -0 -0 -0 -0 -0 -0 -0 -0 -0 -0 -0 -0 -0 -0 -0 -0 -0 -0 -0 -0 -0 -0 -0 -0 -0 -0 -0
-0 -0 -0 -0 -0 -0 -0 -0 -0 -0 -0 -0 -0 -0 -0 -0 -0 -0 -0 -0 -0 -0 -0 -0 -0 -0 -0 -0 -0 -0 -0 -0 -0 -0 -0 -0 -0 -0 -0 -0 -0 -0 -0 -0
-0 -0 -0 -0 -0 -0 -0 -0 -0 -0 -0 -0 -0 -0 -0 -0 -0 -0 -0 -0 -0 -0 -0 -0 -0 -0 -0 -0 -0 -0 -0 -0 -0 -0 -0 -0 -0 -0 -0 -0 -0 -0 -0 -0
-0 -0 -0 -0 -0 -0 -0 -0 -0 -0 -0 -0 -0 -0 -0 -0 -0 -0 -0 -0 -0 -0 -0 -0 -0 -0 -0 -0 -0 -0 -0 -0 -0 -0 -0 -0 -0 -0 -0 -0 -0 -0 -0 -0
-0 -0 -0 -0 -0 -0 -0 -0 -0 -0 -0 -0 -0 -0 -0 -0 -0 -0 -0 -0 -0 -0 -0 -0 -0 -0 -0 -0 -0 -0 -0 -0 -0 -0 -0 -0 -0 -0 -0 -0 -0 -0 -0 -0
-0 -0 -0 -0 -0 -0 -0 -0 -0 -0 -0 -0 -0 -0 -0 -0 -0 -0 -0 -0 -0 -0 -0 -0 -0 -0 -0 -0 -0 -0 -0 -0 -0 -0 -0 -0 -0 -0 -0 -0 -0 -0 -0 -0
-0 -0 -0 -0 -0 -0 -0 -0 -0 -0 -0 -0 -0 -0 -0 -0 -0 -0 -0 -0 -0 -0 -0 -0 -0 -0 -0 -0 -0 -0 -0 -0 -0 -0 -0 -0 -0 -0 -0 -0 -0 -0 -0 -0
Wind_Speed
14 15 15 18 20 22 19 25 16 28 20 29 28 24 13 3 7 10 12 14 14 15 15 16 17 16 16 16 15 14 15 14 12 12 12 11 10 9 8 7 6 5 4 3
11 14 17 21 23 20 20 20 21 24 28 26 17 4 5 6 9 11 12 14 15 16 17 17 17 16 16 16 14 14 14 13 12 12 11 10 9 9 8 6 5 4 4 3
7 7 13 9 8 8 4 6 6 11 10 12 13 3 6 7 9 11 12 13 15 15 15 15 16 17 17 15 13 13 14 12 12 11 11 9 9 8 7 5 4 4 3 4
6 7 4 2 4 9 11 10 13 8 11 9 4 2 7 5 8 11 13 15 14 13 14 14 15 15 15 14 13 13 13 12 11 11 11 9 8 7 5 3 4 3 3 4
3 3 8 7 5 3 4 4 5 5 3 2 3 3 4 5 8 10 12 12 12 12 15 15 15 15 15 13 13 13 12 11 10 10 10 8 7 6 4 3 3 3 3 4
1 3 4 4 2 1 3 6 2 3 4 4 3 3 2 5 10 12 12 12 15 14 14 15 13 15 15 13 13 12 11 11 10 9 9 8 7 5 3 2 3 3 4 4
4 4 8 7 4 1 1 3 5 8 2 4 2 2 2 7 10 11 12 16 13 14 14 14 14 14 14 13 11 11 11 10 9 8 8 7 5 3 3 3 3 4 5 5
4 4 8 1 2 3 3 4 3 5 4 3 5 4 7 8 11 14 15 14 13 13 12 12 13 14 14 13 12 12 11 10 9 7 6 5 6 3 3 3 4 4 6 6
9 8 6 3 5 4 2 4 3 3 1 7 9 4 6 7 11 11 13 13 11 14 14 10 11 13 15 11 12 12 11 9 9 7 6 4 4 3 2 3 3 4 5 6
1 4 7 7 4 3 2 1 1 2 4 4 8 8 10 10 10 11 10 12 12 15 15 12 11 12 14 12 11 11 11 9 7 6 5 3 3 2 2 2 3 4 6 7
5 9 6 6 5 2 4 5 5 6 4 8 11 10 10 10 10 10 11 11 11 13 13 12 13 13 11 11 11 11 10 7 6 4 4 3 2 1 2 2 3 6 6 6
6 5 2 4 2 4 5 4 6 7 9 9 9 12 11 10 9 10 11 12 13 13 14 12 13 12 10 9 10 10 8 6 4 3 2 2 2 2 4 6 10 10 12 10
3 2 3 3 4 2 5 5 7 10 9 13 10 12 13 12 9 15 12 13 13 14 13 13 13 11 7 7 8 8 8 6 4 4 2 1 2 3 6 5 7 10 12 16
2 4 2 4 3 5 10 11 11 13 10 10 11 12 13 12 13 12 12 12 14 14 13 12 12 10 6 7 8 8 6 10 4 2 2 1 2 3 3 5 8 8 12 14
5 1 2 8 8 8 9 11 11 12 11 11 9 11 13 14 13 12 12 13 13 13 12 11 11 8 5 7 8 7 5 4 3 2 2 3 2 3 3 5 6 7 8 10
4 5 7 7 10 9 10 9 13 9 10 11 12 11 12 14 13 12 11 11 15 11 10 10 9 5 6 7 7 5 4 8 5 3 2 3 3 3 4 5 6 7 8 9
6 3 5 5 9 10 6 8 9 11 11 13 13 13 14 14 13 12 9 9 11 10 9 9 8 6 6 5 6 4 3 3 5 3 3 2 2 3 5 5 6 7 8 9
1 1 6 10 12 11 10 9 10 11 12 13 13 13 13 13 13 11 10 11 11 10 7 7 7 7 6 5 5 4 3 3 3 3 2 3 3 4 4 6 7 8 8 9
3 7 8 11 11 12 12 12 10 12 13 13 13 12 11 11 11 11 10 11 10 11 3 5 12 9 6 7 6 4 4 3 3 2 2 4 4 4 5 6 7 8 8 8
6 7 11 11 11 13 14 11 14 13 10 13 14 14 13 10 10 10 9 7 4 5 6 8 7 6 5 6 8 4 4 3 1 2 3 3 4 5 6 8 8 8 8 8
8 10 12 13 12 11 12 13 15 14 11 11 14 13 12 10 9 10 10 8 3 7 7 11 5 4 3 5 5 3 3 1 1 2 3 4 5 5 6 6 7 8 8 8
6 9 12 13 13 12 10 11 12 14 13 13 13 13 14 11 9 9 6 8 4 13 6 4 4 7 5 7 3 2 1 1 2 2 3 4 5 6 6 7 8 8 8 8
6 8 10 11 13 13 11 10 10 12 14 13 13 12 10 7 6 9 8 4 5 9 5 4 8 9 8 4 2 1 1 2 3 4 4 4 5 5 6 7 7 7 8 8
7 8 10 11 12 13 14 7 10 10 12 11 10 10 11 8 5 4 9 13 16 10 5 5 6 7 6 2 1 1 2 3 3 4 4 8 5 5 6 7 7 7 8 10
8 8 10 10 11 9 12 11 11 11 13 11 9 7 7 3 5 4 6 7 14 8 5 8 7 6 3 2 1 2 3 3 4 4 4 5 5 5 6 6 7 7 8 8
9 7 6 7 9 9 9 8 9 8 9 9 6 5 6 7 8 7 6 8 5 8 4 3 2 3 2 2 2 3 3 4 5 5 6 5 6 6 6 7 7 7 8 8
8 12 9 8 6 6 6 9 11 9 8 8 9 5 7 7 8 7 9 5 4 4 3 2 2 3 2 2 3 3 3 4 7 6 5 5 5 5 6 7 7 7 8 8
Wind_Direction
258 265 266 266 263 253 228 233 235 276 277 293 297 307 308 162 133 121 116 135 135 129 127 124 121 119 117 114 119 124 121 121 121 120 120 121 118 115 111 105 103 105 96 61
283 268 260 267 264 267 260 245 244 256 274 277 293 341 140 151 139 136 144 136 132 128 126 126 127 125 122 122 122 126 122 121 121 120 122 122 118 113 107 106 106 91 65 34
265 307 293 267 276 268 258 225 225 220 241 290 304 197 169 163 152 143 139 137 132 132 129 131 130 130 128 126 125 122 121 122 123 125 124 120 116 111 110 106 100 70 31 8
288 318 276 273 153 282 289 276 207 255 267 298 278 62 130 137 141 140 140 135 132 130 124 123 126 122 121 125 124 122 121 122 125 124 119 116 112 112 118 102 75 43 10 352
270 258 284 286 173 242 325 303 191 249 288 27 114 78 42 126 129 137 140 133 129 128 129 128 126 128 123 122 121 121 125 126 125 123 122 121 114 117 105 91 67 24 349 346
329 312 283 253 171 99 128 317 138 203 1 150 196 31 239 131 121 117 120 128 128 129 127 124 130 131 126 125 125 124 125 123 122 120 120 121 126 112 90 72 27 359 349 349
240 262 283 253 279 358 189 236 319 316 17 353 346 94 31 104 108 117 126 128 128 132 133 133 133 129 122 124 118 119 116 115 113 115 115 113 109 94 86 56 20 4 347 330
194 225 270 212 349 149 242 299 268 287 304 83 109 101 81 101 114 121 122 125 126 120 122 129 133 125 124 116 122 119 116 111 111 109 110 109 104 98 80 41 19 352 329 330
186 214 241 234 217 250 207 239 281 269 253 139 132 119 110 112 109 114 120 121 123 124 119 116 126 129 120 126 123 118 112 110 112 109 101 108 109 82 53 21 358 335 332 329
0 263 251 273 267 204 27 59 329 359 103 109 127 120 114 110 106 109 111 115 120 120 120 113 112 110 115 121 120 117 114 119 119 114 111 92 81 91 39 346 333 333 333 332
267 281 275 272 242 129 93 88 73 49 71 111 119 107 112 109 107 107 108 113 118 119 112 104 108 108 115 119 119 113 117 119 113 101 99 90 53 43 317 280 294 336 332 319
222 235 153 282 26 118 118 111 101 103 87 79 101 106 108 99 104 110 110 111 105 105 106 108 108 107 106 110 120 122 118 121 122 113 92 71 27 343 332 358 348 339 333 329
218 130 118 102 87 89 102 94 94 91 101 107 96 105 105 106 105 109 105 109 110 110 109 108 107 106 105 109 113 112 118 122 111 100 92 52 11 2 350 342 340 341 339 334
209 123 116 183 183 119 108 100 95 90 86 97 103 101 103 103 104 100 100 107 109 108 105 108 107 104 107 109 108 109 111 115 111 119 101 71 31 13 347 336 334 331 333 331
171 74 80 107 96 101 113 114 110 105 109 97 92 109 111 109 104 105 107 107 105 104 104 108 108 106 111 110 109 110 112 112 110 101 69 54 30 357 342 335 328 315 316 323
103 106 112 123 132 130 127 122 119 121 119 114 107 98 100 103 106 104 106 118 122 123 119 113 109 119 113 105 107 103 100 111 100 76 56 39 10 346 341 335 321 316 318 319
108 93 128 142 150 146 141 132 128 126 121 113 114 116 112 108 102 100 89 91 103 107 113 119 120 112 108 111 109 106 99 70 78 70 50 12 338 346 337 322 315 315 309 313
293 197 160 149 148 134 114 110 116 120 119 120 116 116 116 119 121 115 111 108 98 87 89 107 113 110 102 103 102 101 93 83 66 55 18 342 345 344 324 316 314 308 307 310
46 112 110 120 127 124 124 118 110 114 118 122 120 110 108 110 118 118 117 111 115 115 128 122 119 108 108 110 98 88 81 75 58 29 342 347 348 331 325 320 311 309 311 311
90 89 100 102 109 121 118 117 120 114 116 118 115 113 111 113 119 113 108 92 99 121 126 113 105 100 101 93 93 86 84 76 46 356 344 2 335 321 319 318 315 309 308 310
116 114 114 115 111 114 121 129 126 123 124 125 124 125 122 113 110 119 110 106 106 116 120 119 115 106 103 96 86 85 84 72 19 359 343 327 316 312 309 310 309 309 310 309
118 125 125 125 122 115 119 122 122 123 118 111 113 118 116 109 99 76 56 121 139 125 117 108 114 117 105 96 92 93 90 36 350 336 323 314 310 310 310 309 305 309 306 302
106 115 117 120 121 112 101 102 109 116 120 123 123 121 116 115 122 123 119 129 113 124 111 117 119 109 98 81 84 86 38 345 328 319 310 300 294 298 299 301 301 303 302 298
107 102 104 111 115 113 108 91 96 101 101 99 103 115 125 118 73 63 118 133 126 118 111 109 110 100 95 96 81 26 333 322 315 302 294 312 303 293 294 296 296 296 292 295
107 112 119 117 112 111 113 114 107 99 99 96 89 82 88 65 116 127 106 114 117 98 76 100 100 88 79 53 16 339 318 307 293 286 308 299 294 295 294 292 289 291 289 295
125 120 110 104 119 122 126 127 115 115 117 108 82 82 86 92 103 102 96 107 95 105 92 88 83 76 43 354 347 319 309 313 319 305 304 294 294 294 293 292 289 289 291 291
101 112 110 102 100 108 117 128 125 125 124 121 109 97 104 104 110 105 105 94 96 101 97 73 38 14 353 328 322 317 313 303 309 301 299 291 286 283 286 286 287 288 290 289